Lawrenceville, IL

2:33 AM CDT on April 20, 2018 (GMT -0500)
Lawrenceville-Vincennes International

Weather History for KLWV - May, 2014

Change the Weather History Date:

Wednesday, May 14, 2014

  Actual Average Record
Temperature  
Mean Temperature 53 °F 66 °F  
Max Temperature 57 °F 76 °F 89 °F (1998)
Min Temperature 48 °F 55 °F 44 °F (1993)
Degree Days  
Heating Degree Days 12 3  
Month to date heating degree days 51 52  
Since 1 July heating degree days 5493 4643  
Cooling Degree Days 0 3  
Month to date cooling degree days 64 31  
Year to date cooling degree days 74 57  
Growing Degree Days 2 (Base 50)    
Moisture  
Dew Point 52 °F    
Average Humidity 93    
Maximum Humidity 100    
Minimum Humidity 86    
Precipitation  
Precipitation 1.59 in 0.21 in 1.59 in (2014)
Month to date precipitation 3.04 2.85  
Year to date precipitation 14.97 14.83  
Sea Level Pressure  
Sea Level Pressure 30.04 in    
Wind  
Wind Speed 13 mph (North)    
Max Wind Speed 29 mph    
Max Gust Speed 35 mph    
Visibility 4 miles    
Events Rain    
T = Trace of Precipitation, MM = Missing Value Source: NWS Daily Summary

Daily Weather History Graph

Daily Weather History Graph

Search for Another Location

Airport or City:

Astronomy

May. 14, 2014 Rise Set
Actual Time 5:39 AM CDT 7:54 PM CDT
Civil Twilight 5:09 AM CDT 8:24 PM CDT
Nautical Twilight 4:32 AM CDT 9:01 PM CDT
Astronomical Twilight 3:52 AM CDT 9:42 PM CDT
Moon 8:00 PM CDT (5/14) 5:37 AM CDT (5/14)
Length of Visible Light 15h 15m
Length of Day
14h 15m
Full, 100% of the Moon is Illuminated
May 14
Full
May 14
Full
May 21
Last Quarter
May 28
New
Jun 5
First Quarter

Hourly Weather History & Observations

Time (CDT) Temp. Dew Point Humidity Pressure Visibility Wind Dir Wind Speed Gust Speed Precip Events Conditions
12:19 AM 55.9 °F 52.0 °F 87% 30.16 in 7.0 mi NNW 11.5 mph - N/A   Overcast
12:53 AM 55.0 °F 52.0 °F 89% 30.15 in 7.0 mi NNW 9.2 mph - N/A   Overcast
1:32 AM 55.0 °F 52.0 °F 89% 30.16 in 2.5 mi NW 9.2 mph - 0.05 in Rain Rain
1:41 AM 55.0 °F 52.0 °F 89% 30.14 in 3.0 mi North 11.5 mph - 0.06 in Rain Rain
1:53 AM 55.0 °F 52.0 °F 89% 30.15 in 2.5 mi North 6.9 mph - 0.09 in Rain Rain
2:01 AM 54.0 °F 51.1 °F 90% 30.15 in 3.0 mi North 9.2 mph - 0.01 in Rain Rain
2:14 AM 54.0 °F 51.1 °F 90% 30.14 in 4.0 mi North 11.5 mph - 0.02 in Rain Light Rain
2:53 AM 54.0 °F 51.1 °F 90% 30.15 in 3.0 mi North 5.8 mph - 0.07 in Rain Rain
3:00 AM 54.0 °F 51.1 °F 90% 30.16 in 2.0 mi North 6.9 mph - 0.03 in Rain Rain
3:09 AM 53.1 °F 51.1 °F 93% 30.14 in 1.5 mi North 12.7 mph - 0.12 in Rain Heavy Rain
3:21 AM 53.1 °F 51.1 °F 93% 30.16 in 2.0 mi Variable 3.5 mph - 0.16 in Rain Rain
3:29 AM 53.1 °F 51.1 °F 93% 30.14 in 2.5 mi North 9.2 mph - 0.18 in Rain Rain
3:37 AM 53.1 °F 51.1 °F 93% 30.14 in 3.0 mi North 11.5 mph - 0.20 in Rain Rain
3:51 AM 53.6 °F 51.8 °F 94% 30.14 in 2.0 mi NE 11.5 mph - 0.27 in Rain Heavy Rain
3:53 AM 53.1 °F 51.1 °F 93% 30.14 in 2.0 mi NNE 13.8 mph - 0.27 in Rain Heavy Rain
4:06 AM 52.0 °F 50.0 °F 93% 30.14 in 3.0 mi NNE 10.4 mph - 0.04 in Rain Light Rain
4:46 AM 52.0 °F 50.0 °F 93% 30.14 in 4.0 mi NNE 9.2 mph - 0.09 in Rain Light Rain
4:53 AM 52.0 °F 50.0 °F 93% 30.14 in 4.0 mi North 9.2 mph - 0.09 in Rain Light Rain
5:53 AM 52.0 °F 48.9 °F 89% 30.15 in 5.0 mi NNW 9.2 mph - 0.04 in Rain Light Rain
6:12 AM 52.0 °F 50.0 °F 93% 30.14 in 2.5 mi North 9.2 mph - 0.02 in Rain Rain
6:20 AM 52.0 °F 50.0 °F 93% 30.13 in 2.5 mi North 12.7 mph - 0.03 in Rain Light Rain
6:23 AM 52.0 °F 50.0 °F 93% 30.13 in 3.0 mi North 11.5 mph - 0.03 in Rain Light Rain
6:53 AM 52.0 °F 48.9 °F 89% 30.13 in 5.0 mi North 12.7 mph - 0.03 in Rain Light Rain
7:22 AM 52.0 °F 48.9 °F 89% 30.12 in 5.0 mi North 11.5 mph - 0.01 in Rain Light Rain
7:36 AM 52.0 °F 50.0 °F 93% 30.13 in 6.0 mi North 8.1 mph - 0.01 in   Overcast
7:53 AM 53.1 °F 50.0 °F 89% 30.13 in 6.0 mi North 9.2 mph - 0.01 in   Overcast
8:17 AM 53.1 °F 50.0 °F 89% 30.11 in 5.0 mi North 11.5 mph - N/A   Overcast
8:53 AM 53.1 °F 50.0 °F 89% 30.11 in 5.0 mi NNE 10.4 mph - 0.00 in   Overcast
9:48 AM 53.6 °F 50.0 °F 88% 30.11 in 2.5 mi North 8.1 mph - 0.04 in Rain Rain
9:57 AM 53.1 °F 51.1 °F 93% 30.11 in 1.8 mi NNE 8.1 mph - 0.02 in Rain Rain
10:26 AM 53.1 °F 51.1 °F 93% 30.09 in 3.0 mi NNE 9.2 mph - 0.05 in Rain Light Rain
10:53 AM 54.0 °F 51.1 °F 90% 30.07 in 3.0 mi NNE 12.7 mph - 0.08 in Rain Light Rain
11:31 AM 55.0 °F 52.0 °F 89% 30.06 in 3.0 mi NNE 11.5 mph - 0.02 in Rain Light Rain
11:45 AM 55.0 °F 52.0 °F 89% 30.06 in 3.0 mi North 9.2 mph - 0.03 in Rain Light Rain
11:53 AM 55.0 °F 52.0 °F 89% 30.06 in 3.0 mi NNE 10.4 mph - 0.03 in Rain Light Rain
12:35 PM 55.9 °F 53.1 °F 90% 30.02 in 4.0 mi NE 10.4 mph - 0.02 in Rain Light Rain
12:53 PM 55.9 °F 54.0 °F 93% 30.00 in 6.0 mi NE 11.5 mph - 0.02 in Rain Light Rain
1:53 PM 57.0 °F 54.0 °F 89% 29.99 in 5.0 mi North 8.1 mph - 0.01 in Rain Light Rain
2:53 PM 57.0 °F 54.0 °F 89% 29.95 in 3.0 mi North 6.9 mph - 0.01 in Rain Light Rain
3:09 PM 57.0 °F 54.0 °F 89% 29.94 in 1.8 mi North 9.2 mph - 0.03 in Rain Rain
3:20 PM 57.0 °F 54.0 °F 89% 29.93 in 2.0 mi NNW 10.4 mph - 0.06 in Rain Rain
3:56 PM 57.0 °F 55.0 °F 93% 29.92 in 1.8 mi North 11.5 mph - 0.01 in Rain Rain
4:10 PM 57.0 °F 55.0 °F 93% 29.90 in 1.5 mi North 13.8 mph - 0.07 in Rain Heavy Rain
4:51 PM 55.4 °F 53.6 °F 94% 29.90 in 2.0 mi NNW 20.7 mph - 0.28 in Rain Heavy Rain
4:53 PM 55.0 °F 53.1 °F 93% 29.91 in 2.0 mi NNW 16.1 mph - 0.29 in Rain Heavy Rain
5:07 PM 55.0 °F 54.0 °F 96% 29.92 in 1.0 mi NW 18.4 mph - 0.07 in Rain Heavy Rain
5:30 PM 54.0 °F 53.1 °F 97% 29.91 in 2.0 mi NNW 20.7 mph 31.1 mph 0.16 in Rain Rain
5:41 PM 54.0 °F 53.1 °F 97% 29.91 in 3.0 mi NNW 19.6 mph 28.8 mph 0.18 in Rain Rain
5:53 PM 53.1 °F 52.0 °F 96% 29.91 in 2.5 mi North 26.5 mph 35.7 mph 0.21 in Rain Rain
6:10 PM 52.0 °F 51.1 °F 97% 29.92 in 1.5 mi North 27.6 mph 34.5 mph 0.04 in Rain Rain
6:15 PM 52.0 °F 51.1 °F 97% 29.91 in 2.5 mi NNW 24.2 mph 34.5 mph 0.04 in Rain Light Rain
6:19 PM 52.0 °F 51.1 °F 97% 29.89 in 5.0 mi North 26.5 mph 32.2 mph 0.04 in Rain Light Rain
6:28 PM 52.0 °F 51.1 °F 97% 29.89 in 6.0 mi North 24.2 mph 35.7 mph 0.05 in Rain Light Rain
6:53 PM 52.0 °F 51.1 °F 97% 29.87 in 10.0 mi North 20.7 mph 28.8 mph 0.05 in Rain Light Rain
7:53 PM 52.0 °F 51.1 °F 97% 29.88 in 10.0 mi North 19.6 mph - 0.00 in   Overcast
8:53 PM 51.1 °F 50.0 °F 96% 29.90 in 5.0 mi NNW 16.1 mph - 0.01 in Rain Light Rain
9:53 PM 50.0 °F - N/A% 29.91 in 3.0 mi NW 13.8 mph - 0.05 in Rain Light Rain
10:12 PM 48.9 °F - N/A% 29.91 in 2.5 mi NW 15.0 mph - 0.01 in Rain Light Rain
10:29 PM 48.9 °F - N/A% 29.92 in 1.8 mi NW 16.1 mph - 0.04 in Rain Light Rain
10:36 PM 48.9 °F - N/A% 29.91 in 2.0 mi NW 17.3 mph - 0.04 in Rain Light Rain
10:47 PM 48.2 °F - N/A% 29.91 in 4.0 mi NNW 16.1 mph - 0.05 in Rain Light Rain
10:53 PM 48.9 °F - N/A% 29.91 in 5.0 mi NNW 17.3 mph - 0.05 in Rain Light Rain
11:53 PM 48.9 °F - N/A% 29.91 in 3.0 mi NW 12.7 mph - 0.00 in Rain Light Rain